International Virtual Aviation Organisation

Russian Federation and Kazakhstan MCD

 

Карточка аэропорта UMKK

Внимание!
Информация на этой странице в стадии наполнения.
Если вы не увидели какой-то информации, или заметили неточность - пожалуйста сообщите нам!
Спасибо!
Команда RU-STAFF
Название аэропортаХраброво
Название аэропорта (англ.)Khrabrovo
Превышение43 ft. (13.1 m.)
Координаты54°53.4', 20°35.55'
Высота перехода1000m
Эшелон переходаQFE>=742mm:FL050; QFE<742:FL060
Коды ответчика6620-6637
Зона ОрВДКалининград РПИ (UMKK)
Данные METARUMKK 282000Z 27002MPS 7000 NSC 02/00 Q1015 R24/CLRD95 NOSIG RMK QFE760/1013
Проноз погоды (TAF)UMKK 281959Z 2821/2921 35003G08MPS 6000 NSC TEMPO 2821/2824 29002MPS 3100 BR TEMPO 2900/2903 36006G13MPS BKN040 BECMG 2903/2905 01009G17MPS FEW006 BKN011 TEMPO 2906/2912 02012G21MPS 2000 SHSNRA BKN003 BKN015CB
NOTAMshow/hide NOTAM
AWOS   TABLE

Информация о ВПП

ВПП Длина ВПП (м.) Покрытие Курс ВПП Частота ILS
063350Асфальтобетон60110.3
243350Асфальтобетон240109.5

Диспетчерские позиции

Позывной Наименование органа УВД Частота
UMKK_APPКалининград-Подход126.0
UMKK_TWRКалининград-Вышка127.2



Спутниковое изображение